RADUGA 26 (21016 NORAD) Tracking and Keplerian Element Data

This shows tracking and keplerian element data for the satellite.

Feedback or suggestion? Click here.




ElementValue
Catalog21016
NameRADUGA 26
Epoch Orbit12525
Epoch Day34.01354554
Epoch Year2025
RAAN341.4307
Inclination13.285
Eccentricity0.0003902
Argument of Perigee120.2263
Mean Anonmoly119.1737
Mean Motion1.00319239
Decay Rate-1.85E-06
L11 21016U 90112A 25034.01354554 -.00000185 00000+0 00000+0 0 9997
L22 21016 13.2850 341.4307 0003902 120.2263 119.1737 1.00319239125255



Live tracking and technical data element details for RADUGA 26 (NORAD 21016). RADUGA 26 can be tracked NOW for your location showing map with azimuth and elevation plus other details from your city location.







IsCatalogInMostPopularTable: catalog: 21016, numindb: 351
Update: records affected: 1



GetName: 21016 RADUGA 26

Hit Count: updated at: Fri, 16 May 2025 11:02:50 GMT